| time (UTC) | temp F | wind direction | speed MPH | gust MPH | rain 1hr in | rain 24hr in | rain mn in | humidity % | barometer mb |
| 20260510065017 | 46 | 0.0 | 0.0 | 0.00 | 0.00 | 0.00 | 58 | 1099.5 | |
| 20260510064016 | 46 | 0.0 | 0.0 | 0.00 | 0.00 | 0.00 | 56 | ||
| 20260510063016 | 46 | 0.0 | 0.0 | 0.00 | 0.00 | 0.00 | 55 | ||
| 20260510062016 | 47 | 0.0 | 0.0 | 0.00 | 0.00 | 0.00 | 54 | ||
| 20260510061016 | 47 | 0.0 | 0.0 | 0.00 | 0.00 | 0.00 | 52 | ||
| 20260510060016 | 48 | 0.0 | 0.0 | 0.00 | 0.00 | 0.00 | 51 | ||
| 20260510055016 | 48 | 0.0 | 0.0 | 0.00 | 0.00 | 0.00 | 50 | ||
| 20260510054016 | 49 | 0.0 | 0.0 | 0.00 | 0.00 | 0.00 | 50 | ||
| 20260510053056 | 49 | 68 | 1.0 | 2.0 | 0.00 | 0.00 | 0.00 | 49 | |
| 20260510052157 | 50 | 0.0 | 0.0 | 0.00 | 0.00 | 0.00 | 47 | ||
| 20260510051016 | 50 | 0.0 | 0.0 | 0.00 | 0.00 | 0.00 | 47 | ||
| 20260510050017 | 51 | 0.0 | 1.0 | 0.00 | 0.00 | 0.00 | 46 | ||
| 20260510045017 | 51 | 0.0 | 1.0 | 0.00 | 0.00 | 0.00 | 45 | ||
| 20260510044018 | 51 | 68 | 1.0 | 3.0 | 0.00 | 0.00 | 0.00 | 44 | |
| 20260510043017 | 52 | 68 | 1.0 | 2.0 | 0.00 | 0.00 | 0.00 | 44 | |
| 20260510042017 | 52 | 68 | 1.0 | 3.0 | 0.00 | 0.00 | 0.00 | 43 | |
| 20260510041038 | 52 | 68 | 1.0 | 2.0 | 0.00 | 0.00 | 0.00 | 43 | |
| 20260510040037 | 52 | 68 | 1.0 | 2.0 | 0.00 | 0.00 | 0.00 | 42 | |
| 20260510035038 | 53 | 113 | 2.0 | 4.0 | 0.00 | 0.00 | 0.00 | 41 | |
| 20260510034017 | 53 | 113 | 1.0 | 3.0 | 0.00 | 0.00 | 0.00 | 42 | |
| 20260510033017 | 53 | 0.0 | 0.0 | 0.00 | 0.00 | 0.00 | 41 | ||
| 20260510032016 | 54 | 0.0 | 1.0 | 0.00 | 0.00 | 0.00 | 40 | ||
| 20260510031016 | 54 | 113 | 1.0 | 4.0 | 0.00 | 0.00 | 0.00 | 39 | |
| 20260510030017 | 54 | 113 | 2.0 | 6.0 | 0.00 | 0.00 | 0.00 | 38 | |
| 20260510025016 | 55 | 90 | 1.0 | 4.0 | 0.00 | 0.00 | 0.00 | 38 | |
| 20260510024016 | 55 | 90 | 1.0 | 3.0 | 0.00 | 0.00 | 0.00 | 37 | |
| 20260510023037 | 55 | 90 | 2.0 | 4.0 | 0.00 | 0.00 | 0.00 | 37 | |
| 20260510022016 | 56 | 90 | 1.0 | 3.0 | 0.00 | 0.00 | 0.00 | 36 | |
| 20260510021016 | 56 | 68 | 1.0 | 3.0 | 0.00 | 0.00 | 0.00 | 35 | |
| 20260510020056 | 56 | 90 | 1.0 | 6.0 | 0.00 | 0.00 | 0.00 | 35 | |
| 20260510015037 | 57 | 45 | 2.0 | 5.0 | 0.00 | 0.00 | 0.00 | 35 | |
| 20260510014017 | 57 | 45 | 2.0 | 4.0 | 0.00 | 0.00 | 0.00 | 34 | |
| 20260510013036 | 57 | 90 | 3.0 | 8.0 | 0.00 | 0.00 | 0.00 | 33 | |
| 20260510012017 | 58 | 113 | 4.0 | 11.0 | 0.00 | 0.00 | 0.00 | 33 | |
| 20260510011016 | 58 | 90 | 3.0 | 8.0 | 0.00 | 0.00 | 0.00 | 32 | |
| 20260510010017 | 59 | 90 | 4.0 | 10.0 | 0.00 | 0.00 | 0.00 | 32 | |
| 20260510005016 | 59 | 113 | 5.0 | 10.0 | 0.00 | 0.00 | 0.00 | 31 | |
| 20260510004016 | 59 | 90 | 4.0 | 10.0 | 0.00 | 0.00 | 0.00 | 30 | |
| 20260510003017 | 60 | 90 | 3.0 | 7.0 | 0.00 | 0.00 | 0.00 | 30 | |
| 20260510002016 | 60 | 90 | 3.0 | 10.0 | 0.00 | 0.00 | 0.00 | 30 | |
| 20260510001016 | 60 | 113 | 5.0 | 12.0 | 0.00 | 0.00 | 0.00 | 29 | |
| 20260510000037 | 60 | 113 | 4.0 | 7.0 | 0.00 | 0.00 | 0.00 | 29 | |
| 20260509235017 | 61 | 90 | 3.0 | 8.0 | 0.00 | 0.00 | 0.00 | 31 | |
| 20260509234015 | 61 | 90 | 5.0 | 12.0 | 0.00 | 0.00 | 0.00 | 29 | |
| 20260509233016 | 61 | 90 | 5.0 | 10.0 | 0.00 | 0.00 | 0.00 | 28 | |
| 20260509232016 | 61 | 90 | 6.0 | 14.0 | 0.00 | 0.00 | 0.00 | 28 | |
| 20260509231016 | 62 | 90 | 5.0 | 10.0 | 0.00 | 0.00 | 0.00 | 27 | |
| 20260509230015 | 63 | 90 | 6.0 | 12.0 | 0.00 | 0.00 | 0.00 | 27 | |
| 20260509225036 | 63 | 113 | 5.0 | 12.0 | 0.00 | 0.00 | 0.00 | 27 | |
| 20260509224015 | 64 | 113 | 5.0 | 10.0 | 0.00 | 0.00 | 0.00 | 27 | |
| 20260509223015 | 64 | 113 | 3.0 | 9.0 | 0.00 | 0.00 | 0.00 | 28 | |
| 20260509222015 | 64 | 90 | 5.0 | 11.0 | 0.00 | 0.00 | 0.00 | 27 | |
| 20260509221016 | 64 | 68 | 5.0 | 12.0 | 0.00 | 0.00 | 0.00 | 28 | |
| 20260509220015 | 63 | 113 | 5.0 | 9.0 | 0.00 | 0.00 | 0.00 | 28 | |
| 20260509215017 | 64 | 68 | 5.0 | 13.0 | 0.00 | 0.00 | 0.00 | 28 | |
| 20260509214017 | 63 | 68 | 4.0 | 9.0 | 0.00 | 0.00 | 0.00 | 30 | |
| 20260509213038 | 63 | 113 | 5.0 | 10.0 | 0.00 | 0.00 | 0.00 | 27 | |
| 20260509212017 | 63 | 113 | 5.0 | 12.0 | 0.00 | 0.00 | 0.00 | 28 | |
| 20260509211017 | 64 | 113 | 5.0 | 10.0 | 0.00 | 0.00 | 0.00 | 29 | |
| 20260509210018 | 64 | 113 | 6.0 | 13.0 | 0.00 | 0.00 | 0.00 | 29 | |
| 20260509205017 | 64 | 90 | 4.0 | 9.0 | 0.00 | 0.00 | 0.00 | 32 | |
| 20260509204017 | 64 | 113 | 5.0 | 10.0 | 0.00 | 0.00 | 0.00 | 28 | |
| 20260509203018 | 63 | 68 | 5.0 | 13.0 | 0.00 | 0.00 | 0.00 | 28 | |
| 20260509202017 | 63 | 90 | 5.0 | 10.0 | 0.00 | 0.00 | 0.00 | 30 | |
| 20260509201017 | 63 | 90 | 6.0 | 12.0 | 0.00 | 0.00 | 0.00 | 29 | |
| 20260509200017 | 62 | 113 | 4.0 | 11.0 | 0.00 | 0.00 | 0.00 | 30 | |
| 20260509195017 | 62 | 113 | 6.0 | 10.0 | 0.00 | 0.00 | 0.00 | 30 | |
| 20260509194017 | 62 | 113 | 6.0 | 13.0 | 0.00 | 0.00 | 0.00 | 31 | |
| 20260509193018 | 62 | 113 | 6.0 | 12.0 | 0.00 | 0.00 | 0.00 | 33 | |
| 20260509192017 | 62 | 90 | 7.0 | 14.0 | 0.00 | 0.00 | 0.00 | 30 | |
| 20260509191016 | 62 | 113 | 4.0 | 9.0 | 0.00 | 0.00 | 0.00 | 31 | |
| 20260509190118 | 62 | 113 | 7.0 | 15.0 | 0.00 | 0.00 | 0.00 | 33 | |
| 20260509185016 | 61 | 113 | 5.0 | 11.0 | 0.00 | 0.00 | 0.00 | 35 | |
| 20260509184017 | 61 | 45 | 7.0 | 18.0 | 0.00 | 0.00 | 0.00 | 34 | |
| 20260509183016 | 61 | 113 | 7.0 | 13.0 | 0.00 | 0.00 | 0.00 | 34 | |
| 20260509182017 | 61 | 68 | 5.0 | 12.0 | 0.00 | 0.00 | 0.00 | 35 | |
| 20260509181016 | 61 | 90 | 6.0 | 12.0 | 0.00 | 0.00 | 0.00 | 36 | |
| 20260509180017 | 60 | 90 | 5.0 | 10.0 | 0.00 | 0.00 | 0.00 | 37 | |
| 20260509175016 | 60 | 90 | 5.0 | 9.0 | 0.00 | 0.00 | 0.00 | 37 | |
| 20260509174036 | 60 | 113 | 7.0 | 12.0 | 0.00 | 0.00 | 0.00 | 36 | |
| 20260509173017 | 60 | 113 | 7.0 | 12.0 | 0.00 | 0.00 | 0.00 | 37 | |
| 20260509172016 | 60 | 90 | 6.0 | 18.0 | 0.00 | 0.00 | 0.00 | 38 | |
| 20260509171016 | 59 | 113 | 6.0 | 12.0 | 0.00 | 0.00 | 0.00 | 37 | |
| 20260509170016 | 60 | 113 | 6.0 | 12.0 | 0.00 | 0.00 | 0.00 | 37 | |
| 20260509165036 | 60 | 113 | 6.0 | 11.0 | 0.00 | 0.00 | 0.00 | 37 | |
| 20260509164017 | 60 | 113 | 7.0 | 15.0 | 0.00 | 0.00 | 0.00 | 35 | |
| 20260509163016 | 59 | 90 | 5.0 | 10.0 | 0.00 | 0.00 | 0.00 | 37 | |
| 20260509162017 | 59 | 90 | 7.0 | 14.0 | 0.00 | 0.00 | 0.00 | 37 | |
| 20260509161016 | 59 | 90 | 7.0 | 14.0 | 0.00 | 0.00 | 0.00 | 39 | |
| 20260509160016 | 59 | 113 | 7.0 | 12.0 | 0.00 | 0.00 | 0.00 | 40 | |
| 20260509155016 | 59 | 90 | 7.0 | 12.0 | 0.00 | 0.00 | 0.00 | 43 | |
| 20260509154016 | 58 | 90 | 6.0 | 13.0 | 0.00 | 0.00 | 0.00 | 43 | |
| 20260509153016 | 58 | 90 | 6.0 | 16.0 | 0.00 | 0.00 | 0.00 | 45 | |
| 20260509152016 | 58 | 113 | 6.0 | 12.0 | 0.00 | 0.00 | 0.00 | 45 | |
| 20260509151015 | 57 | 90 | 4.0 | 9.0 | 0.00 | 0.00 | 0.00 | 49 | |
| 20260509150016 | 57 | 113 | 5.0 | 9.0 | 0.00 | 0.00 | 0.00 | 51 | |
| 20260509145016 | 56 | 113 | 5.0 | 11.0 | 0.00 | 0.00 | 0.00 | 53 | |
| 20260509144057 | 57 | 90 | 5.0 | 10.0 | 0.00 | 0.00 | 0.00 | 54 | |
| 20260509143015 | 56 | 113 | 4.0 | 9.0 | 0.00 | 0.00 | 0.00 | 57 | |
| 20260509142016 | 56 | 90 | 5.0 | 13.0 | 0.00 | 0.00 | 0.00 | 59 | |
| 20260509141016 | 55 | 90 | 5.0 | 12.0 | 0.00 | 0.00 | 0.00 | 62 | |
| 20260509140015 | 54 | 90 | 4.0 | 12.0 | 0.00 | 0.00 | 0.00 | 66 | |
| 20260509135016 | 54 | 113 | 4.0 | 8.0 | 0.00 | 0.00 | 0.00 | 67 | |
| 20260509134017 | 54 | 90 | 5.0 | 10.0 | 0.00 | 0.00 | 0.00 | 67 | |
| 20260509133018 | 54 | 113 | 6.0 | 12.0 | 0.00 | 0.00 | 0.00 | 66 | |
| 20260509132017 | 53 | 68 | 6.0 | 14.0 | 0.00 | 0.00 | 0.00 | 68 | |
| 20260509131018 | 53 | 68 | 4.0 | 10.0 | 0.00 | 0.00 | 0.00 | 69 | |
| 20260509130017 | 53 | 113 | 6.0 | 11.0 | 0.00 | 0.00 | 0.00 | 70 | |
| 20260509125017 | 53 | 90 | 4.0 | 8.0 | 0.00 | 0.00 | 0.00 | 72 | |
| 20260509124017 | 53 | 113 | 6.0 | 9.0 | 0.00 | 0.00 | 0.00 | 72 | |
| 20260509123018 | 53 | 113 | 5.0 | 10.0 | 0.00 | 0.00 | 0.00 | 72 | |
| 20260509122017 | 53 | 90 | 4.0 | 9.0 | 0.00 | 0.00 | 0.00 | 73 | |
| 20260509121017 | 53 | 90 | 5.0 | 11.0 | 0.00 | 0.00 | 0.00 | 74 | |
| 20260509120017 | 53 | 90 | 3.0 | 8.0 | 0.00 | 0.00 | 0.00 | 73 | |
| 20260509115017 | 53 | 90 | 2.0 | 7.0 | 0.00 | 0.00 | 0.00 | 73 | |
| 20260509114038 | 53 | 90 | 2.0 | 4.0 | 0.00 | 0.00 | 0.00 | 73 | |
| 20260509113038 | 53 | 68 | 1.0 | 4.0 | 0.00 | 0.00 | 0.00 | 72 | |
| 20260509112017 | 53 | 68 | 1.0 | 3.0 | 0.00 | 0.00 | 0.00 | 71 | |
| 20260509111037 | 53 | 68 | 1.0 | 8.0 | 0.00 | 0.00 | 0.00 | 71 | |
| 20260509110017 | 53 | 0.0 | 2.0 | 0.00 | 0.00 | 0.00 | 70 | ||
| 20260509105016 | 54 | 0.0 | 3.0 | 0.00 | 0.00 | 0.00 | 69 | ||
| 20260509104016 | 54 | 0.0 | 2.0 | 0.00 | 0.00 | 0.00 | 68 | ||
| 20260509103017 | 54 | 135 | 2.0 | 3.0 | 0.00 | 0.00 | 0.00 | 62 | |
| 20260509102016 | 54 | 0.0 | 1.0 | 0.00 | 0.00 | 0.00 | 60 | ||
| 20260509101037 | 54 | 135 | 1.0 | 2.0 | 0.00 | 0.00 | 0.00 | 59 | |
| 20260509100017 | 54 | 0.0 | 0.0 | 0.00 | 0.00 | 0.00 | 58 | 905.0 | |
| 20260509095016 | 54 | 45 | 1.0 | 3.0 | 0.00 | 0.00 | 0.00 | 57 | 905.0 |
| 20260509094016 | 54 | 113 | 1.0 | 3.0 | 0.00 | 0.00 | 0.00 | 56 | 905.0 |
| 20260509093017 | 54 | 90 | 2.0 | 5.0 | 0.00 | 0.00 | 0.00 | 55 | 905.1 |
| 20260509092016 | 54 | 68 | 1.0 | 3.0 | 0.00 | 0.00 | 0.00 | 54 | 905.1 |
| 20260509091016 | 54 | 68 | 1.0 | 3.0 | 0.00 | 0.00 | 0.00 | 54 | 905.0 |
| 20260509090016 | 53 | 68 | 2.0 | 3.0 | 0.00 | 0.00 | 0.00 | 54 | 905.0 |
| 20260509085017 | 53 | 68 | 1.0 | 3.0 | 0.00 | 0.00 | 0.00 | 55 | 905.0 |
| 20260509084016 | 52 | 90 | 1.0 | 4.0 | 0.00 | 0.00 | 0.00 | 55 | 905.0 |
| 20260509083017 | 51 | 90 | 2.0 | 6.0 | 0.00 | 0.00 | 0.00 | 55 | 904.9 |
| 20260509082037 | 51 | 90 | 1.0 | 4.0 | 0.00 | 0.00 | 0.00 | 58 | 904.9 |
| 20260509081016 | 50 | 0.0 | 0.0 | 0.00 | 0.00 | 0.00 | 58 | 904.9 | |
| 20260509080016 | 50 | 0.0 | 0.0 | 0.00 | 0.00 | 0.00 | 58 | 904.9 | |
| 20260509075016 | 50 | 0.0 | 0.0 | 0.00 | 0.00 | 0.00 | 58 | 904.9 | |
| 20260509074017 | 50 | 0.0 | 0.0 | 0.00 | 0.00 | 0.00 | 57 | 904.9 | |
| 20260509073016 | 50 | 0.0 | 0.0 | 0.00 | 0.00 | 0.00 | 55 | 904.9 | |
| 20260509072016 | 50 | 0.0 | 0.0 | 0.00 | 0.00 | 0.00 | 56 | 904.9 | |
| 20260509071016 | 51 | 0.0 | 0.0 | 0.00 | 0.00 | 0.00 | 55 | 904.9 | |
| 20260509070015 | 51 | 0.0 | 0.0 | 0.00 | 0.00 | 0.00 | 54 | 904.9 |